Location: Alfortville
(48.8058°N, 2.4204°E)
Time: 12:47:19
(UTC+00:00)

Meteor 1-19 Rocket - Pass Details

Date: 14 December 2023
Orbit: 806 x 928 km, 81.2° (Epoch: 01 March)

Event Time Altitude Azimuth Distance (km) Brightness Sun altitude
Rises 17:01:04 0° 131° (SE) 3,530 7.2 -10.5°
Reaches altitude 10° 17:04:54 10° 106° (ESE) 2,613 6.3 -11.0°
Enters shadow 17:07:05 13° 84° (E) 2,394 5.9 -11.4°
